Wetterdaten: aktuell Mittwoch, 25.11.2020 09:20
Datum Zeit Temp. 2m Temp. 5cm Feuchte A. Luftdruck Regen Wind Richtung Richtung Sonnenschein ET UV Solar Windben
25.11.2020 09:20 1,8 C 1,7 C 95 % 1017,7 hPa 0,0 l/m 3,2 km/h (1 Bft) S 180 0 min 0,000 mm 0,0 UV-I 83 W/m 8,0 km/h (2 Bft)
25.11.2020 09:15 1,8 C 1,7 C 95 % 1017,6 hPa 0,0 l/m 4,8 km/h (1 Bft) S-SO 157 5 min 0,000 mm 0,0 UV-I 93 W/m 9,7 km/h (2 Bft)
25.11.2020 09:10 1,7 C 1,7 C 95 % 1017,7 hPa 0,0 l/m 3,2 km/h (1 Bft) S 180 5 min 0,000 mm 0,0 UV-I 91 W/m 9,7 km/h (2 Bft)
25.11.2020 09:05 1,7 C 1,7 C 95 % 1017,7 hPa 0,0 l/m 4,8 km/h (1 Bft) S 180 5 min 0,000 mm 0,0 UV-I 88 W/m 11,3 km/h (2 Bft)
25.11.2020 09:00 1,6 C 1,1 C 95 % 1017,6 hPa 0,0 l/m 4,8 km/h (1 Bft) S 180 5 min 0,025 mm 0,0 UV-I 79 W/m 9,7 km/h (2 Bft)
25.11.2020 08:55 1,6 C 1,1 C 95 % 1017,7 hPa 0,0 l/m 3,2 km/h (1 Bft) S-SO 157 5 min 0,000 mm 0,0 UV-I 67 W/m 8,0 km/h (2 Bft)
25.11.2020 08:50 1,5 C 1,1 C 95 % 1017,7 hPa 0,0 l/m 3,2 km/h (1 Bft) S-SO 157 5 min 0,000 mm 0,0 UV-I 56 W/m 8,0 km/h (2 Bft)
25.11.2020 08:45 1,5 C 0,6 C 95 % 1017,6 hPa 0,0 l/m 3,2 km/h (1 Bft) S-SO 157 5 min 0,000 mm 0,0 UV-I 49 W/m 8,0 km/h (2 Bft)
25.11.2020 08:40 1,4 C 0,6 C 95 % 1017,6 hPa 0,0 l/m 4,8 km/h (1 Bft) S 180 5 min 0,000 mm 0,0 UV-I 40 W/m 9,7 km/h (2 Bft)
25.11.2020 08:35 1,3 C 0,6 C 95 % 1017,7 hPa 0,0 l/m 3,2 km/h (1 Bft) S 180 0 min 0,000 mm 0,0 UV-I 30 W/m 4,8 km/h (1 Bft)
25.11.2020 08:30 1,3 C 0,6 C 95 % 1017,7 hPa 0,0 l/m 3,2 km/h (1 Bft) S 180 5 min 0,000 mm 0,0 UV-I 26 W/m 6,4 km/h (2 Bft)
25.11.2020 08:25 1,3 C 0,0 C 95 % 1017,7 hPa 0,0 l/m 1,6 km/h (1 Bft) S 180 5 min 0,000 mm 0,0 UV-I 23 W/m 4,8 km/h (1 Bft)
25.11.2020 08:20 1,3 C 0,0 C 95 % 1017,7 hPa 0,0 l/m 1,6 km/h (1 Bft) S 180 0 min 0,000 mm 0,0 UV-I 18 W/m 6,4 km/h (2 Bft)
25.11.2020 08:15 1,3 C 0,0 C 95 % 1017,7 hPa 0,0 l/m 1,6 km/h (1 Bft) S 180 0 min 0,000 mm 0,0 UV-I 12 W/m 4,8 km/h (1 Bft)
25.11.2020 08:10 1,3 C -0,6 C 95 % 1017,6 hPa 0,0 l/m 1,6 km/h (1 Bft) S 180 0 min 0,000 mm 0,0 UV-I 11 W/m 6,4 km/h (2 Bft)
25.11.2020 08:05 1,3 C -0,6 C 95 % 1017,5 hPa 0,0 l/m 3,2 km/h (1 Bft) S 180 0 min 0,000 mm 0,0 UV-I 9 W/m 6,4 km/h (2 Bft)
25.11.2020 08:00 1,3 C 0,0 C 95 % 1017,5 hPa 0,0 l/m 3,2 km/h (1 Bft) S 180 0 min 0,000 mm 0,0 UV-I 9 W/m 6,4 km/h (2 Bft)
25.11.2020 07:55 1,3 C 0,0 C 95 % 1017,5 hPa 0,0 l/m 3,2 km/h (1 Bft) S 180 0 min 0,000 mm 0,0 UV-I 7 W/m 6,4 km/h (2 Bft)
25.11.2020 07:50 1,4 C 0,0 C 95 % 1017,5 hPa 0,0 l/m 1,6 km/h (1 Bft) S 180 0 min 0,000 mm 0,0 UV-I 5 W/m 4,8 km/h (1 Bft)
25.11.2020 07:45 1,4 C -0,6 C 95 % 1017,6 hPa 0,0 l/m 1,6 km/h (1 Bft) S 180 0 min 0,000 mm 0,0 UV-I 0 W/m 4,8 km/h (1 Bft)
25.11.2020 07:40 1,4 C 0,0 C 95 % 1017,7 hPa 0,0 l/m 1,6 km/h (1 Bft) S 180 0 min 0,000 mm 0,0 UV-I 0 W/m 4,8 km/h (1 Bft)
25.11.2020 07:35 1,4 C 0,0 C 95 % 1017,6 hPa 0,0 l/m 1,6 km/h (1 Bft) S 180 0 min 0,000 mm 0,0 UV-I 0 W/m 3,2 km/h (1 Bft)
25.11.2020 07:30 1,4 C 0,6 C 95 % 1017,5 hPa 0,0 l/m 0,0 km/h (0 Bft) S 180 0 min 0,000 mm 0,0 UV-I 0 W/m 3,2 km/h (1 Bft)
25.11.2020 07:25 1,5 C 0,6 C 95 % 1017,6 hPa 0,0 l/m 1,6 km/h (1 Bft) S 180 0 min 0,000 mm 0,0 UV-I 0 W/m 3,2 km/h (1 Bft)
25.11.2020 07:20 1,5 C 0,6 C 95 % 1017,5 hPa 0,0 l/m 1,6 km/h (1 Bft) S 180 0 min 0,000 mm 0,0 UV-I 0 W/m 4,8 km/h (1 Bft)
25.11.2020 07:15 1,6 C 0,6 C 95 % 1017,5 hPa 0,0 l/m 1,6 km/h (1 Bft) S 180 0 min 0,000 mm 0,0 UV-I 0 W/m 4,8 km/h (1 Bft)
25.11.2020 07:10 1,6 C 0,6 C 94 % 1017,5 hPa 0,0 l/m 1,6 km/h (1 Bft) S 180 0 min 0,000 mm 0,0 UV-I 0 W/m 3,2 km/h (1 Bft)
25.11.2020 07:05 1,6 C 0,0 C 95 % 1017,5 hPa 0,0 l/m 1,6 km/h (1 Bft) S 180 0 min 0,000 mm 0,0 UV-I 0 W/m 4,8 km/h (1 Bft)
25.11.2020 07:00 1,7 C 0,0 C 95 % 1017,5 hPa 0,0 l/m 1,6 km/h (1 Bft) S 180 0 min 0,000 mm 0,0 UV-I 0 W/m 4,8 km/h (1 Bft)
25.11.2020 06:55 1,7 C 0,0 C 95 % 1017,5 hPa 0,0 l/m 1,6 km/h (1 Bft) S 180 0 min 0,000 mm 0,0 UV-I 0 W/m 4,8 km/h (1 Bft)
25.11.2020 06:50 1,7 C 0,6 C 95 % 1017,5 hPa 0,0 l/m 0,0 km/h (0 Bft) S 180 0 min 0,000 mm 0,0 UV-I 0 W/m 3,2 km/h (1 Bft)
25.11.2020 06:45 1,8 C 0,0 C 95 % 1017,4 hPa 0,0 l/m 1,6 km/h (1 Bft) S 180 0 min 0,000 mm 0,0 UV-I 0 W/m 4,8 km/h (1 Bft)
25.11.2020 06:40 1,8 C 0,6 C 95 % 1017,5 hPa 0,0 l/m 3,2 km/h (1 Bft) S 180 0 min 0,000 mm 0,0 UV-I 0 W/m 6,4 km/h (2 Bft)
25.11.2020 06:35 1,7 C 0,6 C 95 % 1017,5 hPa 0,0 l/m 1,6 km/h (1 Bft) S 180 0 min 0,000 mm 0,0 UV-I 0 W/m 6,4 km/h (2 Bft)
25.11.2020 06:30 1,7 C 0,6 C 95 % 1017,6 hPa 0,0 l/m 1,6 km/h (1 Bft) S 180 0 min 0,000 mm 0,0 UV-I 0 W/m 4,8 km/h (1 Bft)
25.11.2020 06:25 1,7 C 0,6 C 95 % 1017,5 hPa 0,0 l/m 3,2 km/h (1 Bft) S 180 0 min 0,000 mm 0,0 UV-I 0 W/m 8,0 km/h (2 Bft)
25.11.2020 06:20 1,7 C 0,6 C 95 % 1017,5 hPa 0,0 l/m 3,2 km/h (1 Bft) S 180 0 min 0,000 mm 0,0 UV-I 0 W/m 6,4 km/h (2 Bft)
25.11.2020 06:15 1,7 C 0,6 C 94 % 1017,5 hPa 0,0 l/m 0,0 km/h (0 Bft) S 180 0 min 0,000 mm 0,0 UV-I 0 W/m 3,2 km/h (1 Bft)
25.11.2020 06:10 1,8 C 0,6 C 94 % 1017,6 hPa 0,0 l/m 0,0 km/h (0 Bft) S 180 0 min 0,000 mm 0,0 UV-I 0 W/m 3,2 km/h (1 Bft)
25.11.2020 06:05 1,8 C 0,6 C 94 % 1017,6 hPa 0,0 l/m 1,6 km/h (1 Bft) S 180 0 min 0,000 mm 0,0 UV-I 0 W/m 3,2 km/h (1 Bft)
25.11.2020 06:00 1,8 C 0,6 C 94 % 1017,5 hPa 0,0 l/m 1,6 km/h (1 Bft) S 180 0 min 0,000 mm 0,0 UV-I 0 W/m 6,4 km/h (2 Bft)
25.11.2020 05:55 1,8 C 0,6 C 94 % 1017,4 hPa 0,0 l/m 1,6 km/h (1 Bft) S 180 0 min 0,000 mm 0,0 UV-I 0 W/m 4,8 km/h (1 Bft)
25.11.2020 05:50 1,7 C 0,6 C 94 % 1017,3 hPa 0,0 l/m 1,6 km/h (1 Bft) S 180 0 min 0,000 mm 0,0 UV-I 0 W/m 4,8 km/h (1 Bft)
25.11.2020 05:45 1,7 C 0,6 C 94 % 1017,4 hPa 0,0 l/m 1,6 km/h (1 Bft) S 180 0 min 0,000 mm 0,0 UV-I 0 W/m 4,8 km/h (1 Bft)
25.11.2020 05:40 1,7 C 0,6 C 94 % 1017,5 hPa 0,0 l/m 1,6 km/h (1 Bft) S 180 0 min 0,000 mm 0,0 UV-I 0 W/m 4,8 km/h (1 Bft)
25.11.2020 05:35 1,7 C 0,6 C 94 % 1017,5 hPa 0,0 l/m 1,6 km/h (1 Bft) S 180 0 min 0,000 mm 0,0 UV-I 0 W/m 4,8 km/h (1 Bft)
25.11.2020 05:30 1,7 C 0,6 C 94 % 1017,5 hPa 0,0 l/m 1,6 km/h (1 Bft) S 180 0 min 0,000 mm 0,0 UV-I 0 W/m 4,8 km/h (1 Bft)
25.11.2020 05:25 1,7 C 0,0 C 94 % 1017,6 hPa 0,0 l/m 1,6 km/h (1 Bft) S 180 0 min 0,000 mm 0,0 UV-I 0 W/m 6,4 km/h (2 Bft)
25.11.2020 05:20 1,7 C 0,0 C 94 % 1017,8 hPa 0,0 l/m 3,2 km/h (1 Bft) S 180 0 min 0,000 mm 0,0 UV-I 0 W/m 6,4 km/h (2 Bft)
25.11.2020 05:15 1,8 C 0,0 C 94 % 1017,7 hPa 0,0 l/m 3,2 km/h (1 Bft) S 180 0 min 0,000 mm 0,0 UV-I 0 W/m 6,4 km/h (2 Bft)
25.11.2020 05:10 1,8 C -0,6 C 94 % 1017,8 hPa 0,0 l/m 1,6 km/h (1 Bft) S 180 0 min 0,000 mm 0,0 UV-I 0 W/m 4,8 km/h (1 Bft)
25.11.2020 05:05 1,8 C 0,0 C 94 % 1017,7 hPa 0,0 l/m 1,6 km/h (1 Bft) S 180 0 min 0,000 mm 0,0 UV-I 0 W/m 6,4 km/h (2 Bft)
25.11.2020 05:00 1,8 C 0,0 C 94 % 1017,7 hPa 0,0 l/m 1,6 km/h (1 Bft) S 180 0 min 0,000 mm 0,0 UV-I 0 W/m 4,8 km/h (1 Bft)
25.11.2020 04:55 1,8 C 0,6 C 94 % 1017,6 hPa 0,0 l/m 1,6 km/h (1 Bft) S 180 0 min 0,000 mm 0,0 UV-I 0 W/m 4,8 km/h (1 Bft)
25.11.2020 04:50 1,9 C 0,6 C 94 % 1017,7 hPa 0,0 l/m 3,2 km/h (1 Bft) S 180 0 min 0,000 mm 0,0 UV-I 0 W/m 6,4 km/h (2 Bft)
25.11.2020 04:45 1,9 C 0,0 C 94 % 1017,8 hPa 0,0 l/m 0,0 km/h (0 Bft) S 180 0 min 0,000 mm 0,0 UV-I 0 W/m 4,8 km/h (1 Bft)
25.11.2020 04:40 1,9 C 0,0 C 94 % 1017,8 hPa 0,0 l/m 1,6 km/h (1 Bft) S 180 0 min 0,000 mm 0,0 UV-I 0 W/m 4,8 km/h (1 Bft)
25.11.2020 04:35 2,0 C 0,0 C 94 % 1017,8 hPa 0,2 l/m 1,6 km/h (1 Bft) S 180 0 min 0,000 mm 0,0 UV-I 0 W/m 4,8 km/h (1 Bft)
25.11.2020 04:30 2,0 C 0,6 C 94 % 1017,8 hPa 0,0 l/m 1,6 km/h (1 Bft) S 180 0 min 0,000 mm 0,0 UV-I 0 W/m 4,8 km/h (1 Bft)
25.11.2020 04:25 2,1 C 0,6 C 94 % 1017,8 hPa 0,0 l/m 1,6 km/h (1 Bft) S 180 0 min 0,000 mm 0,0 UV-I 0 W/m 6,4 km/h (2 Bft)
25.11.2020 04:20 2,1 C 0,6 C 94 % 1017,8 hPa 0,0 l/m 1,6 km/h (1 Bft) S 180 0 min 0,000 mm 0,0 UV-I 0 W/m 4,8 km/h (1 Bft)
25.11.2020 04:15 2,1 C 1,1 C 94 % 1017,7 hPa 0,0 l/m 3,2 km/h (1 Bft) S 180 0 min 0,000 mm 0,0 UV-I 0 W/m 8,0 km/h (2 Bft)
25.11.2020 04:10 2,2 C 1,1 C 94 % 1017,7 hPa 0,0 l/m 3,2 km/h (1 Bft) S 180 0 min 0,000 mm 0,0 UV-I 0 W/m 6,4 km/h (2 Bft)
25.11.2020 04:05 2,1 C 0,6 C 94 % 1017,7 hPa 0,0 l/m 3,2 km/h (1 Bft) S 180 0 min 0,000 mm 0,0 UV-I 0 W/m 6,4 km/h (2 Bft)
25.11.2020 04:00 2,2 C 0,6 C 94 % 1017,7 hPa 0,0 l/m 1,6 km/h (1 Bft) S 180 0 min 0,000 mm 0,0 UV-I 0 W/m 4,8 km/h (1 Bft)
25.11.2020 03:55 2,2 C 1,1 C 94 % 1017,8 hPa 0,0 l/m 1,6 km/h (1 Bft) S 180 0 min 0,000 mm 0,0 UV-I 0 W/m 4,8 km/h (1 Bft)
25.11.2020 03:50 2,2 C 0,6 C 94 % 1017,8 hPa 0,0 l/m 1,6 km/h (1 Bft) S 180 0 min 0,000 mm 0,0 UV-I 0 W/m 4,8 km/h (1 Bft)
25.11.2020 03:45 2,2 C 0,6 C 94 % 1017,8 hPa 0,0 l/m 1,6 km/h (1 Bft) S 180 0 min 0,000 mm 0,0 UV-I 0 W/m 6,4 km/h (2 Bft)
25.11.2020 03:40 2,3 C 0,0 C 94 % 1018,0 hPa 0,0 l/m 1,6 km/h (1 Bft) S 180 0 min 0,000 mm 0,0 UV-I 0 W/m 4,8 km/h (1 Bft)
25.11.2020 03:35 2,3 C 0,0 C 94 % 1018,0 hPa 0,0 l/m 1,6 km/h (1 Bft) S 180 0 min 0,000 mm 0,0 UV-I 0 W/m 3,2 km/h (1 Bft)
25.11.2020 03:30 2,3 C 0,0 C 94 % 1018,2 hPa 0,0 l/m 0,0 km/h (0 Bft) S 180 0 min 0,000 mm 0,0 UV-I 0 W/m 1,6 km/h (1 Bft)
25.11.2020 03:25 2,3 C 0,6 C 94 % 1018,2 hPa 0,0 l/m 0,0 km/h (0 Bft) S 180 0 min 0,000 mm 0,0 UV-I 0 W/m 1,6 km/h (1 Bft)
25.11.2020 03:20 2,3 C 0,6 C 94 % 1018,2 hPa 0,0 l/m 1,6 km/h (1 Bft) S 180 0 min 0,000 mm 0,0 UV-I 0 W/m 4,8 km/h (1 Bft)
25.11.2020 03:15 2,3 C 0,6 C 94 % 1018,2 hPa 0,0 l/m 1,6 km/h (1 Bft) S 180 0 min 0,000 mm 0,0 UV-I 0 W/m 6,4 km/h (2 Bft)
25.11.2020 03:10 2,3 C 0,6 C 94 % 1018,1 hPa 0,0 l/m 3,2 km/h (1 Bft) S 180 0 min 0,000 mm 0,0 UV-I 0 W/m 6,4 km/h (2 Bft)
25.11.2020 03:05 2,3 C 0,6 C 94 % 1018,3 hPa 0,0 l/m 1,6 km/h (1 Bft) S 180 0 min 0,000 mm 0,0 UV-I 0 W/m 3,2 km/h (1 Bft)
25.11.2020 03:00 2,3 C 0,6 C 94 % 1018,3 hPa 0,0 l/m 1,6 km/h (1 Bft) S 180 0 min 0,000 mm 0,0 UV-I 0 W/m 3,2 km/h (1 Bft)
25.11.2020 02:55 2,4 C 0,6 C 94 % 1018,3 hPa 0,0 l/m 1,6 km/h (1 Bft) S 180 0 min 0,000 mm 0,0 UV-I 0 W/m 3,2 km/h (1 Bft)
25.11.2020 02:50 2,4 C 1,1 C 94 % 1018,3 hPa 0,0 l/m 1,6 km/h (1 Bft) S 180 0 min 0,000 mm 0,0 UV-I 0 W/m 3,2 km/h (1 Bft)
25.11.2020 02:45 2,4 C 0,6 C 93 % 1018,3 hPa 0,0 l/m 1,6 km/h (1 Bft) S 180 0 min 0,000 mm 0,0 UV-I 0 W/m 6,4 km/h (2 Bft)
25.11.2020 02:40 2,5 C 0,6 C 93 % 1018,3 hPa 0,0 l/m 0,0 km/h (0 Bft) S 180 0 min 0,000 mm 0,0 UV-I 0 W/m 3,2 km/h (1 Bft)
25.11.2020 02:35 2,6 C 0,0 C 93 % 1018,3 hPa 0,0 l/m 0,0 km/h (0 Bft) S 180 0 min 0,000 mm 0,0 UV-I 0 W/m 3,2 km/h (1 Bft)
25.11.2020 02:30 2,7 C 0,0 C 93 % 1018,3 hPa 0,0 l/m 0,0 km/h (0 Bft) S 180 0 min 0,000 mm 0,0 UV-I 0 W/m 3,2 km/h (1 Bft)
25.11.2020 02:25 2,8 C -0,6 C 93 % 1018,4 hPa 0,0 l/m 0,0 km/h (0 Bft) N 0 0 min 0,000 mm 0,0 UV-I 0 W/m 0,0 km/h (0 Bft)
25.11.2020 02:20 2,8 C -0,6 C 93 % 1018,5 hPa 0,0 l/m 0,0 km/h (0 Bft) N 0 0 min 0,000 mm 0,0 UV-I 0 W/m 0,0 km/h (0 Bft)
25.11.2020 02:15 2,9 C 0,0 C 93 % 1018,4 hPa 0,0 l/m 0,0 km/h (0 Bft) N 0 0 min 0,000 mm 0,0 UV-I 0 W/m 0,0 km/h (0 Bft)
25.11.2020 02:10 2,9 C 0,0 C 93 % 1018,4 hPa 0,0 l/m 0,0 km/h (0 Bft) N 0 0 min 0,000 mm 0,0 UV-I 0 W/m 0,0 km/h (0 Bft)
25.11.2020 02:05 3,0 C 0,6 C 93 % 1018,4 hPa 0,0 l/m 0,0 km/h (0 Bft) N 0 0 min 0,000 mm 0,0 UV-I 0 W/m 0,0 km/h (0 Bft)
25.11.2020 02:00 3,1 C 1,1 C 93 % 1018,4 hPa 0,0 l/m 0,0 km/h (0 Bft) N 0 0 min 0,000 mm 0,0 UV-I 0 W/m 0,0 km/h (0 Bft)
25.11.2020 01:55 3,1 C 0,6 C 93 % 1018,4 hPa 0,0 l/m 0,0 km/h (0 Bft) N 0 0 min 0,000 mm 0,0 UV-I 0 W/m 0,0 km/h (0 Bft)
25.11.2020 01:50 3,2 C 0,6 C 93 % 1018,5 hPa 0,0 l/m 0,0 km/h (0 Bft) N 0 0 min 0,000 mm 0,0 UV-I 0 W/m 0,0 km/h (0 Bft)
25.11.2020 01:45 3,3 C 0,6 C 93 % 1018,5 hPa 0,0 l/m 0,0 km/h (0 Bft) N 0 0 min 0,000 mm 0,0 UV-I 0 W/m 0,0 km/h (0 Bft)
25.11.2020 01:40 3,3 C 0,6 C 93 % 1018,5 hPa 0,0 l/m 0,0 km/h (0 Bft) N 0 0 min 0,000 mm 0,0 UV-I 0 W/m 0,0 km/h (0 Bft)
25.11.2020 01:35 3,4 C 0,6 C 93 % 1018,6 hPa 0,0 l/m 0,0 km/h (0 Bft) N 0 0 min 0,000 mm 0,0 UV-I 0 W/m 0,0 km/h (0 Bft)
25.11.2020 01:30 3,5 C 0,0 C 93 % 1018,7 hPa 0,0 l/m 0,0 km/h (0 Bft) N 0 0 min 0,000 mm 0,0 UV-I 0 W/m 0,0 km/h (0 Bft)
25.11.2020 01:25 3,6 C 0,6 C 93 % 1018,6 hPa 0,0 l/m 0,0 km/h (0 Bft) N 0 0 min 0,000 mm 0,0 UV-I 0 W/m 0,0 km/h (0 Bft)
25.11.2020 01:20 3,6 C 1,1 C 93 % 1018,7 hPa 0,0 l/m 0,0 km/h (0 Bft) N 0 0 min 0,000 mm 0,0 UV-I 0 W/m 0,0 km/h (0 Bft)
25.11.2020 01:15 3,7 C 1,7 C 93 % 1018,7 hPa 0,0 l/m 0,0 km/h (0 Bft) N 0 0 min 0,000 mm 0,0 UV-I 0 W/m 0,0 km/h (0 Bft)
25.11.2020 01:10 3,7 C 1,7 C 93 % 1018,8 hPa 0,0 l/m 0,0 km/h (0 Bft) S 180 0 min 0,000 mm 0,0 UV-I 0 W/m 1,6 km/h (1 Bft)
25.11.2020 01:05 3,8 C 2,2 C 93 % 1018,8 hPa 0,0 l/m 1,6 km/h (1 Bft) S 180 0 min 0,000 mm 0,0 UV-I 0 W/m 4,8 km/h (1 Bft)
25.11.2020 01:00 3,8 C 2,2 C 93 % 1018,8 hPa 0,0 l/m 1,6 km/h (1 Bft) S 180 0 min 0,000 mm 0,0 UV-I 0 W/m 3,2 km/h (1 Bft)
25.11.2020 00:55 3,8 C 2,2 C 93 % 1018,9 hPa 0,0 l/m 1,6 km/h (1 Bft) S 180 0 min 0,000 mm 0,0 UV-I 0 W/m 3,2 km/h (1 Bft)
25.11.2020 00:50 3,9 C 2,2 C 93 % 1018,9 hPa 0,0 l/m 1,6 km/h (1 Bft) S 180 0 min 0,000 mm 0,0 UV-I 0 W/m 4,8 km/h (1 Bft)
25.11.2020 00:45 3,9 C 2,2 C 93 % 1018,9 hPa 0,0 l/m 1,6 km/h (1 Bft) S 180 0 min 0,000 mm 0,0 UV-I 0 W/m 4,8 km/h (1 Bft)
25.11.2020 00:40 4,0 C 2,2 C 93 % 1019,1 hPa 0,0 l/m 3,2 km/h (1 Bft) S 180 0 min 0,000 mm 0,0 UV-I 0 W/m 6,4 km/h (2 Bft)
25.11.2020 00:35 4,1 C 2,2 C 93 % 1019,2 hPa 0,0 l/m 3,2 km/h (1 Bft) S 180 0 min 0,000 mm 0,0 UV-I 0 W/m 6,4 km/h (2 Bft)
25.11.2020 00:30 4,1 C 1,7 C 93 % 1019,2 hPa 0,0 l/m 3,2 km/h (1 Bft) S 180 0 min 0,000 mm 0,0 UV-I 0 W/m 6,4 km/h (2 Bft)
25.11.2020 00:25 4,2 C 1,7 C 93 % 1019,2 hPa 0,0 l/m 3,2 km/h (1 Bft) S 180 0 min 0,000 mm 0,0 UV-I 0 W/m 4,8 km/h (1 Bft)
25.11.2020 00:20 4,2 C 1,7 C 93 % 1019,2 hPa 0,0 l/m 1,6 km/h (1 Bft) S 180 0 min 0,000 mm 0,0 UV-I 0 W/m 4,8 km/h (1 Bft)
25.11.2020 00:15 4,3 C 2,2 C 93 % 1019,2 hPa 0,0 l/m 1,6 km/h (1 Bft) S 180 0 min 0,000 mm 0,0 UV-I 0 W/m 6,4 km/h (2 Bft)
25.11.2020 00:10 4,3 C 2,2 C 93 % 1019,3 hPa 0,0 l/m 1,6 km/h (1 Bft) S 180 0 min 0,000 mm 0,0 UV-I 0 W/m 6,4 km/h (2 Bft)
25.11.2020 00:05 4,4 C 2,2 C 93 % 1019,4 hPa 0,0 l/m 3,2 km/h (1 Bft) S 180 0 min 0,000 mm 0,0 UV-I 0 W/m 8,0 km/h (2 Bft)
25.11.2020 00:00 4,4 C 2,2 C 93 % 1019,3 hPa 0,0 l/m 3,2 km/h (1 Bft) S 180 0 min 0,000 mm 0,0 UV-I 0 W/m 4,8 km/h (1 Bft)
_ Min-Zeit 08:25 02:20 00:00 05:50 - 01:10 - - - - - - 01:15
Minimum _ 1,2 C -0,6 C 93 % 1017,3 hPa - 0,0 km/h (0 Bft) - - - - - - 0,0 km/h (0 Bft)
_ Max-Zeit 00:00 00:00 06:20 00:05 04:35 08:40 - - 08:25 09:00 00:00 09:15 09:05
Maximum _ 4,4 C 2,2 C 95 % 1019,4 hPa 0,2 l/m 4,8 km/h
S (1 Bft)
- - 5 min 0,025 mm 0,0 UV-I 93 W/m 11,3 km/h
SO (2 Bft)
Durchschnitt _ 2,3 C 0,7 C 94 % 1018,0 hPa #0,2 l/m 1,7 km/h (1 Bft) S - #50 min. #0,025 mm 0,0 UV-I 42 W/m 4,6 km/h (1 Bft)